This is the latest recevied weather packets stored in our database for station/object KK7MLS-13. If no packets are shown the sender has not sent any weather packets the latest 10 day(s).
| Time | Temp. | Humidity | Pressure | Rain* | Wind** | Luminosity | Snow |
|---|---|---|---|---|---|---|---|
| 1788318839 | 17.22° C | 70% | 1012.1 hPa | 0 mm | - | 0 W/m² | - |
| 1788318534 | 17.22° C | 69% | 1012.1 hPa | 0 mm | - | 0 W/m² | - |
| 1788318228 | 17.78° C | 69% | 1012.1 hPa | 0 mm | - | 0 W/m² | - |
| 1788317927 | 17.78° C | 69% | 1012.1 hPa | 0 mm | - | 0 W/m² | - |
| 1788317623 | 17.78° C | 69% | 1012.1 hPa | 0 mm | - | 1 W/m² | - |
| 1788317318 | 17.78° C | 68% | 1012 hPa | 0 mm | - | 1 W/m² | - |
| 1788317013 | 17.78° C | 69% | 1012 hPa | 0 mm | - | 3 W/m² | - |
| 1788316708 | 17.78° C | 69% | 1011.9 hPa | 0 mm | - | 4 W/m² | - |
| 1788316405 | 17.78° C | 69% | 1012 hPa | 0 mm | - | 5 W/m² | - |
| 1788316103 | 17.78° C | 68% | 1012 hPa | 0 mm | - | 7 W/m² | - |
| 1788315799 | 17.78° C | 68% | 1012 hPa | 0 mm | - | 9 W/m² | - |
| 1788315495 | 18.33° C | 68% | 1012 hPa | 0 mm | - | 9 W/m² | - |
| 1788315195 | 18.33° C | 68% | 1011.8 hPa | 0 mm | - | 9 W/m² | - |
| 1788314890 | 18.33° C | 68% | 1011.9 hPa | 0 mm | - | 9 W/m² | - |
| 1788314586 | 18.33° C | 67% | 1011.9 hPa | 0 mm | - | 9 W/m² | - |
| 1788314281 | 18.33° C | 67% | 1012 hPa | 0 mm | - | 10 W/m² | - |
| 1788313978 | 18.33° C | 67% | 1011.8 hPa | 0 mm | - | 10 W/m² | - |
| 1788313673 | 18.33° C | 67% | 1011.8 hPa | 0 mm | - | 14 W/m² | - |
| 1788313370 | 18.89° C | 67% | 1011.7 hPa | 0 mm | - | 19 W/m² | - |
| 1788313068 | 18.89° C | 66% | 1011.8 hPa | 0 mm | - | 22 W/m² | - |
| 1788312764 | 18.89° C | 67% | 1011.8 hPa | 0 mm | - | 27 W/m² | - |
| 1788312459 | 18.89° C | 67% | 1011.7 hPa | 0 mm | - | 29 W/m² | - |
| 1788312155 | 18.89° C | 67% | 1011.7 hPa | 0 mm | - | 26 W/m² | - |
| 1788311850 | 18.89° C | 67% | 1011.7 hPa | 0 mm | - | 25 W/m² | - |
| 1788311550 | 18.89° C | 67% | 1011.5 hPa | 0 mm | - | 33 W/m² | - |
* Rain latest hour (hover to see other rain measurements)
** Current wind speed in m/s (hover to see current wind gust speed)